STARLINK-5669, 55459

Orbit data source: Space-Track

STARLINK-5669, 55459 is a payload satellite owned by SpaceX/Seattle (US) in LEO that was launched on Thu, 02 Feb 2023 UTC via an FALCON 9 launch vehicle from the Air Force Eastern Test Range (AFETR). Payload-class satellites include a variety of spacecraft equipped with specific instruments for various scientific and technological missions. These include communications satellites like Starlink; space stations such as the ISS; scientific satellites like the Hubble; Earth observation satellites from companies like Planet Labs, Umbra, and HawkEye 360; GPS; miniature CubeSats for education and research; and military/defense satellites.

Loading next visibility...
Identifier
55459, 2023-015L
Orbit
LEO
Country
Flag of USUS
Related business
Manufacturer
SpaceX/Seattle
Mission
Operational Commercial Communications
Bus & Motor
STARLINK, Unknown motor
Mass
305 kg wet, ~290 kg dry
Launch date (UTC)
2023-02-02 (3 years ago)
Launch vehicle
FALCON 9
Launch site
Air Force Eastern Test Range (AFETR)
Object type
Payload
Rocket body
Debris
Shape & HBR
Box + 1 Pan, 10.1 m
Radar Cross Section
13.562 m², Large (>1 m²)

Expand to show TLE details & history
Last TLE update: 6 hours ago

TLE from 6 hours ago
0 STARLINK-5669
1 55459U 23015L   26132.91194911 -.00000034  00000-0  84228-5 0  9995
2 55459  43.0039 326.0625 0001232 263.0647  97.0064 15.26740998180544
Epoch: 2026-05-12T21:53Z
TLE epoch observation values (Epoch: 2026-05-12T21:53:12.403Z)
Latitude
-0.00002°
Longitude
127.08127°
Altitude
485.442 km
Speed
7.624 km/s
True Right ascension
21h 44m 14s
True Declination
0° 00' 00"
Sunlit
Object was in daylight at epoch
Visualization orbit readout
Latitude
Unknown
Longitude
Unknown
Altitude
Unknown
Speed
Unknown
Apparent Right ascension
Unknown
Apparent Declination
Unknown
Sunlit
N/A
Visualization observer readout
Local Sidereal Time
12:10:04
Azimuth
Unknown
Elevation
Unknown
Doppler factor
Unknown
Orbital elements
Apogee altitude
488.352 km
Perigee altitude
486.66 km
Semi-major axis
6,865.643 km
Eccentricity
0.00012
Inclination
43.0039°
RAAN
326.0625°
Arg. of periapsis
263.0647°
True anomaly
97.02041°
Mean anomaly
97.0064°
Eccentric anomaly
97.01341°
Mean motion
3.81524 °/min
Orbital period
94.36 mins
BSTAR
0.0000084228
Loading maneuver chart data...
Computing Atmospheric mass density...

Documentation

Showing up to 5 results
|